BMCB-5 Weather Reports


time (UTC)temp
F
wind
direction
speed
knots
gust
knots
rain 1hr
in
rain 24hr
in
rain mn
in
humidity
%
barometer
mb
20260506175110 53 0 0.0 0.0 0.00 0.18 0.12 81 1015.7
20260506174107 53 0 0.0 0.0 0.00 0.18 0.12 80 1015.4
20260506173106 54 0 0.0 0.0 0.00 0.18 0.12 79 1015.3
20260506171108 54 0 0.0 0.0 0.00 0.18 0.12 79 1015.2
20260506163105 53 0 0.0 0.0 0.00 0.18 0.12 79 1015.2
20260506162108 53 0 0.0 0.0 0.00 0.18 0.12 79 1015.1
20260506161105 53 0 0.0 0.0 0.00 0.18 0.12 79 1015.2
20260506155104 54 0 0.0 0.0 0.00 0.18 0.12 78 1015.1
20260506154110 55 0 0.0 0.0 0.00 0.18 0.12 79 1015.1
20260506153104 55 0 0.0 0.0 0.00 0.18 0.12 80 1015.1
20260506152102 55 0 0.0 0.0 0.00 0.18 0.12 79 1015.0
20260506151105 56 0 0.0 0.0 0.00 0.18 0.12 78 1015.0
20260506150104 56 0 0.0 0.0 0.00 0.18 0.12 77 1014.9
20260506145104 57 0 0.0 0.0 0.00 0.18 0.12 76 1014.9
20260506144101 57 0 0.0 0.0 0.00 0.18 0.12 75 1014.7
20260506142103 57 0 0.0 0.0 0.00 0.18 0.12 79 1014.7
20260506140110 57 0 0.0 0.0 0.00 0.18 0.12 77 1014.8
20260506135103 56 0 0.0 0.0 0.00 0.18 0.12 79 1014.9
20260506133103 56 0 0.0 0.0 0.00 0.18 0.12 77 1014.8
20260506132102 56 0 0.0 0.0 0.00 0.18 0.12 78 1014.9
20260506131103 56 0 0.0 0.0 0.00 0.18 0.12 80 1014.8
20260506125101 55 0 0.0 0.0 0.00 0.18 0.12 79 1014.7
20260506124100 54 0 0.0 0.0 0.00 0.18 0.12 85 1014.7
20260506123104 54 0 0.0 0.0 0.00 0.18 0.12 86 1014.7
20260506115059 52 0 0.0 0.0 0.00 0.18 0.12 88 1014.7
20260506114100 53 0 0.0 0.0 0.00 0.18 0.12 88 1014.7
20260506112100 53 0 0.0 0.0 0.00 0.18 0.12 90 1014.7
20260506111102 52 0 0.0 0.0 0.00 0.18 0.12 91 1014.8
20260506110101 52 0 0.0 0.0 0.00 0.18 0.12 93 1014.8
20260506104100 50 0 0.0 0.0 0.00 0.18 0.12 96 1014.8
20260506103102 50 0 0.0 0.0 0.00 0.18 0.12 96 1014.8
20260506102103 50 0 0.0 0.0 0.00 0.18 0.12 97 1014.8
20260506101100 49 0 0.0 0.0 0.00 0.18 0.12 98 1014.8
20260506100057 49 0 0.0 0.0 0.00 0.18 0.12 99 1014.7
20260506095101 49 0 0.0 0.0 0.00 0.18 0.12 10 1014.7
20260506094100 48 0 0.0 0.0 0.00 0.18 0.12 10 1014.6
20260506093100 48 0 0.0 0.0 0.00 0.18 0.12 10 1014.5
20260506092059 48 0 0.0 0.0 0.00 0.18 0.12 10 1014.4
20260506085101 48 0 0.0 0.0 0.00 0.18 0.12 10 1014.3
20260506084059 47 0 0.0 0.0 0.00 0.18 0.12 10 1014.2
20260506083056 47 0 0.0 0.0 0.00 0.18 0.12 10 1014.1
20260506082100 47 0 0.0 0.0 0.00 0.18 0.12 10 1014.0
20260506081057 47 0 0.0 0.0 0.00 0.18 0.12 10 1014.0
20260506073058 47 0 0.0 0.0 0.00 0.18 0.12 98 1013.7
20260506072048 47 0 0.0 0.0 0.00 0.18 0.12 97 1013.7
20260506071059 48 0 0.0 0.0 0.00 0.18 0.12 95 1013.6
20260506062025 47 0 0.0 0.0 0.00 0.18 0.12 95 1013.4
20260506061054 46 0 0.0 0.0 0.00 0.18 0.12 96 1013.4
20260506051030 46 0 0.0 0.0 0.01 0.18 0.12 96 1013.4
20260506045033 46 0 0.0 0.0 0.01 0.18 0.12 96 1013.3
20260506044055 46 0 0.0 0.0 0.01 0.18 0.12 96 1013.2
20260506043057 46 0 0.0 0.0 0.02 0.18 0.12 96 1013.2
20260506042025 46 0 0.0 0.0 0.02 0.18 0.12 96 1013.2
20260506041054 46 0 0.0 0.0 0.02 0.18 0.12 97 1013.2
20260506035059 46 0 0.0 0.0 0.02 0.17 0.11 96 1013.3
20260506034058 46 0 0.0 0.0 0.02 0.17 0.11 96 1013.3
20260506033034 46 0 0.0 0.0 0.02 0.17 0.11 96 1013.3
20260506032047 46 0 0.0 0.0 0.01 0.17 0.10 96 1013.4
20260506031054 46 0 0.0 0.0 0.01 0.17 0.10 96 1013.4
20260506030026 47 0 0.0 0.0 0.01 0.17 0.10 96 1013.5
20260506025055 47 0 0.0 0.0 0.00 0.16 0.09 96 1013.5
20260506023057 47 0 0.0 0.0 0.00 0.16 0.09 96 1013.5
20260506022048 47 0 0.0 0.0 0.00 0.16 0.09 97 1013.5
20260506021056 47 0 0.0 0.0 0.00 0.16 0.09 97 1013.5
20260506020058 47 0 0.0 0.0 0.00 0.16 0.09 97 1013.5
20260506015030 47 0 0.0 0.0 0.00 0.16 0.09 98 1013.5
20260506014023 47 0 0.0 0.0 0.01 0.16 0.09 98 1013.5
20260506011034 47 0 0.0 0.0 0.02 0.16 0.09 99 1013.6
20260506010116 47 0 0.0 0.0 0.02 0.16 0.09 99 1013.6
20260506005042 47 0 0.0 0.0 0.03 0.16 0.09 99 1013.7
20260506004051 48 0 0.0 0.0 0.03 0.16 0.09 99 1013.8
20260506003028 48 0 0.0 0.0 0.03 0.15 0.09 99 1013.8
20260506002059 48 0 0.0 0.0 0.04 0.15 0.09 99 1013.9
20260506000100 48 0 0.0 0.0 0.05 0.14 0.08 99 1014.0
20260505235105 48 0 0.0 0.0 0.04 0.13 0.07 98 1014.0
20260505234103 48 0 0.0 0.0 0.04 0.13 0.06 98 1014.1
20260505233103 48 0 0.0 0.0 0.05 0.13 0.06 98 1014.1
20260505232108 48 0 0.0 0.0 0.05 0.12 0.06 98 1014.1
20260505231106 49 0 0.0 0.0 0.04 0.12 0.05 98 1014.1
20260505230107 49 0 0.0 0.0 0.04 0.11 0.04 99 1014.2
20260505225107 49 0 0.0 0.0 0.04 0.10 0.03 99 1014.3
20260505223105 49 0 0.0 0.0 0.05 0.09 0.02 10 1014.3
20260505221109 50 0 0.0 0.0 0.04 0.08 0.01 10 1014.3
20260505215114 50 0 0.0 0.0 0.04 0.07 0.07 10 1014.4
20260505214114 50 0 0.0 0.0 0.03 0.06 0.06 10 1014.5
20260505213112 50 0 0.0 0.0 0.02 0.06 0.06 10 1014.4
20260505212111 50 0 0.0 0.0 0.02 0.05 0.05 10 1014.4
20260505211110 50 0 0.0 0.0 0.02 0.05 0.05 10 1014.5
20260505203117 50 0 0.0 0.0 0.02 0.04 0.03 99 1014.5
20260505202111 50 0 0.0 0.0 0.02 0.04 0.03 99 1014.4
20260505195107 50 0 0.0 0.0 0.02 0.03 0.02 99 1014.3
20260505193116 50 0 0.0 0.0 0.01 0.02 0.02 99 1014.2
20260505192110 51 0 0.0 0.0 0.01 0.02 0.02 99 1014.1
20260505191109 51 0 0.0 0.0 0.01 0.07 0.02 99 1014.1
20260505190108 51 0 0.0 0.0 0.01 0.25 0.02 99 1014.0
20260505185111 51 0 0.0 0.0 0.00 0.38 0.01 99 1014.0
20260505183102 51 0 0.0 0.0 0.00 0.40 0.01 98 1014.0
20260505182105 51 0 0.0 0.0 0.00 0.40 0.01 98 1014.1
20260505181106 51 0 0.0 0.0 0.00 0.40 0.01 98 1014.0
20260505180111 52 0 0.0 0.0 0.00 0.40 0.01 97 1014.0